| time (UTC) | temp F | wind direction | speed knots | gust knots | rain 1hr in | rain 24hr in | rain mn in | humidity % | barometer mb |
| 20260503072504 | 60 | 188 | 2.6 | 5.2 | 0.00 | 0.00 | 0.00 | 77 | 1020.0 |
| 20260503072003 | 59 | 194 | 2.6 | 5.2 | 0.00 | 0.00 | 0.00 | 78 | 1020.0 |
| 20260503071503 | 59 | 153 | 2.6 | 5.2 | 0.00 | 0.00 | 0.00 | 79 | 1020.0 |
| 20260503071005 | 58 | 99 | 1.7 | 5.2 | 0.00 | 0.00 | 0.00 | 79 | 1020.0 |
| 20260503070710 | 58 | 98 | 1.7 | 5.2 | 0.00 | 0.00 | 0.00 | 78 | 1020.0 |
| 20260503055005 | 48 | 331 | 0.0 | 1.7 | 0.00 | 0.00 | 0.00 | 88 | 1020.0 |
| 20260503054503 | 48 | 331 | 0.0 | 0.9 | 0.00 | 0.00 | 0.00 | 89 | 1020.0 |
| 20260503054003 | 47 | 331 | 0.0 | 0.9 | 0.00 | 0.00 | 0.00 | 90 | 1020.0 |
| 20260503053712 | 47 | 331 | 0.0 | 1.7 | 0.00 | 0.00 | 0.00 | 90 | 1019.9 |
| 20260503053003 | 46 | 331 | 0.0 | 1.7 | 0.00 | 0.00 | 0.00 | 91 | 1020.1 |
| 20260503052503 | 45 | 331 | 0.0 | 0.9 | 0.00 | 0.00 | 0.00 | 91 | 1020.0 |
| 20260503052003 | 45 | 331 | 0.0 | 0.9 | 0.00 | 0.00 | 0.00 | 91 | 1020.0 |
| 20260503051505 | 44 | 331 | 0.0 | 0.9 | 0.00 | 0.00 | 0.00 | 92 | 1019.9 |
| 20260503051003 | 44 | 0 | 0.0 | 0.0 | 0.00 | 0.00 | 0.00 | 92 | 1019.9 |
| 20260503050505 | 43 | 0 | 0.0 | 0.0 | 0.00 | 0.00 | 0.00 | 90 | 1019.9 |
| 20260503050004 | 43 | 0 | 0.0 | 0.0 | 0.00 | 0.00 | 0.00 | 91 | 1019.8 |
| 20260503045503 | 42 | 0 | 0.0 | 0.0 | 0.00 | 0.00 | 0.00 | 92 | 1019.9 |
| 20260503045212 | 42 | 0 | 0.0 | 0.0 | 0.00 | 0.00 | 0.00 | 91 | 1019.8 |
| 20260503044503 | 41 | 0 | 0.0 | 0.0 | 0.00 | 0.00 | 0.00 | 89 | 1019.9 |
| 20260503044003 | 41 | 0 | 0.0 | 0.0 | 0.00 | 0.00 | 0.00 | 89 | 1019.8 |
| 20260503043505 | 41 | 0 | 0.0 | 0.0 | 0.00 | 0.00 | 0.00 | 89 | 1019.8 |
| 20260503043003 | 41 | 0 | 0.0 | 0.0 | 0.00 | 0.00 | 0.00 | 88 | 1019.8 |
| 20260503042505 | 41 | 331 | 0.0 | 0.9 | 0.00 | 0.00 | 0.00 | 88 | 1019.8 |
| 20260503042003 | 41 | 331 | 0.0 | 0.9 | 0.00 | 0.00 | 0.00 | 89 | 1019.9 |
| 20260503041503 | 41 | 331 | 0.0 | 0.9 | 0.00 | 0.00 | 0.00 | 88 | 1019.8 |
| 20260503041212 | 41 | 0 | 0.0 | 0.0 | 0.00 | 0.00 | 0.00 | 88 | 1019.8 |
| 20260503040503 | 41 | 0 | 0.0 | 0.0 | 0.00 | 0.00 | 0.00 | 88 | 1019.9 |
| 20260503040004 | 41 | 0 | 0.0 | 0.0 | 0.00 | 0.00 | 0.00 | 88 | 1019.8 |
| 20260503035505 | 41 | 0 | 0.0 | 0.0 | 0.00 | 0.00 | 0.00 | 88 | 1019.8 |
| 20260503035210 | 41 | 0 | 0.0 | 0.0 | 0.00 | 0.00 | 0.00 | 87 | 1019.8 |
| 20260503034503 | 41 | 0 | 0.0 | 0.0 | 0.00 | 0.00 | 0.00 | 87 | 1019.8 |
| 20260503034003 | 41 | 0 | 0.0 | 0.0 | 0.00 | 0.00 | 0.00 | 87 | 1019.9 |
| 20260503033503 | 41 | 0 | 0.0 | 0.0 | 0.00 | 0.00 | 0.00 | 87 | 1019.9 |
| 20260503033005 | 41 | 0 | 0.0 | 0.0 | 0.00 | 0.00 | 0.00 | 86 | 1019.8 |
| 20260503032503 | 41 | 0 | 0.0 | 0.0 | 0.00 | 0.00 | 0.00 | 87 | 1019.9 |
| 20260503032210 | 41 | 0 | 0.0 | 0.0 | 0.00 | 0.00 | 0.00 | 86 | 1019.9 |
| 20260503031505 | 42 | 0 | 0.0 | 0.0 | 0.00 | 0.00 | 0.00 | 87 | 1020.0 |
| 20260503031210 | 42 | 0 | 0.0 | 0.0 | 0.00 | 0.00 | 0.00 | 86 | 1020.0 |
| 20260503030710 | 42 | 0 | 0.0 | 0.0 | 0.00 | 0.00 | 0.00 | 87 | 1019.9 |
| 20260503030005 | 42 | 0 | 0.0 | 0.0 | 0.00 | 0.00 | 0.00 | 87 | 1019.9 |
| 20260503025503 | 42 | 0 | 0.0 | 0.0 | 0.00 | 0.00 | 0.00 | 86 | 1019.9 |
| 20260503025003 | 42 | 0 | 0.0 | 0.0 | 0.00 | 0.00 | 0.00 | 86 | 1020.0 |
| 20260503024504 | 42 | 0 | 0.0 | 0.0 | 0.00 | 0.00 | 0.00 | 87 | 1020.0 |
| 20260503024004 | 42 | 0 | 0.0 | 0.0 | 0.00 | 0.00 | 0.00 | 86 | 1020.1 |
| 20260503023505 | 42 | 0 | 0.0 | 0.0 | 0.00 | 0.00 | 0.00 | 87 | 1020.1 |
| 20260503023003 | 42 | 0 | 0.0 | 0.0 | 0.00 | 0.00 | 0.00 | 87 | 1020.1 |
| 20260503022505 | 42 | 0 | 0.0 | 0.0 | 0.00 | 0.00 | 0.00 | 86 | 1020.2 |
| 20260503022003 | 42 | 0 | 0.0 | 0.0 | 0.00 | 0.00 | 0.00 | 86 | 1020.1 |
| 20260503021503 | 42 | 0 | 0.0 | 0.0 | 0.00 | 0.00 | 0.00 | 86 | 1020.2 |
| 20260503021004 | 43 | 0 | 0.0 | 0.0 | 0.00 | 0.00 | 0.00 | 85 | 1020.2 |
| 20260503020503 | 43 | 0 | 0.0 | 0.0 | 0.00 | 0.00 | 0.00 | 86 | 1020.3 |
| 20260503020004 | 43 | 0 | 0.0 | 0.0 | 0.00 | 0.00 | 0.00 | 86 | 1020.3 |
| 20260503015503 | 43 | 0 | 0.0 | 0.0 | 0.00 | 0.00 | 0.00 | 86 | 1020.3 |
| 20260503015003 | 43 | 0 | 0.0 | 0.0 | 0.00 | 0.00 | 0.00 | 86 | 1020.4 |
| 20260503014505 | 43 | 0 | 0.0 | 0.0 | 0.00 | 0.00 | 0.00 | 86 | 1020.4 |
| 20260503014210 | 43 | 0 | 0.0 | 0.0 | 0.00 | 0.00 | 0.00 | 86 | 1020.4 |
| 20260503013504 | 43 | 331 | 0.0 | 1.7 | 0.00 | 0.00 | 0.00 | 86 | 1020.4 |
| 20260503013211 | 43 | 331 | 0.0 | 1.7 | 0.00 | 0.00 | 0.00 | 87 | 1020.4 |
| 20260503012503 | 43 | 0 | 0.0 | 0.0 | 0.00 | 0.00 | 0.00 | 86 | 1020.4 |
| 20260503012005 | 44 | 0 | 0.0 | 0.0 | 0.00 | 0.00 | 0.00 | 85 | 1020.4 |
| 20260503011710 | 44 | 0 | 0.0 | 0.0 | 0.00 | 0.00 | 0.00 | 85 | 1020.3 |
| 20260503011210 | 44 | 0 | 0.0 | 0.0 | 0.00 | 0.00 | 0.00 | 85 | 1020.4 |
| 20260503010505 | 44 | 0 | 0.0 | 0.0 | 0.00 | 0.00 | 0.00 | 85 | 1020.5 |
| 20260503010004 | 44 | 0 | 0.0 | 0.0 | 0.00 | 0.00 | 0.00 | 85 | 1020.5 |
| 20260503005505 | 44 | 331 | 0.0 | 0.9 | 0.00 | 0.00 | 0.00 | 85 | 1020.5 |
| 20260503005003 | 44 | 331 | 0.0 | 0.9 | 0.00 | 0.00 | 0.00 | 85 | 1020.6 |
| 20260503004505 | 44 | 331 | 0.0 | 0.9 | 0.00 | 0.00 | 0.00 | 85 | 1020.5 |
| 20260503004003 | 44 | 331 | 0.0 | 0.9 | 0.00 | 0.00 | 0.00 | 86 | 1020.6 |
| 20260503003505 | 44 | 0 | 0.0 | 0.0 | 0.00 | 0.00 | 0.00 | 84 | 1020.5 |
| 20260503003003 | 44 | 0 | 0.0 | 0.0 | 0.00 | 0.00 | 0.00 | 84 | 1020.6 |
| 20260503002503 | 45 | 0 | 0.0 | 0.0 | 0.00 | 0.00 | 0.00 | 84 | 1020.6 |
| 20260503002004 | 45 | 0 | 0.0 | 0.0 | 0.00 | 0.00 | 0.00 | 85 | 1020.7 |
| 20260503001503 | 45 | 0 | 0.0 | 0.0 | 0.00 | 0.00 | 0.00 | 84 | 1020.7 |
| 20260503001003 | 45 | 0 | 0.0 | 0.0 | 0.00 | 0.00 | 0.00 | 84 | 1020.7 |
| 20260503000710 | 45 | 0 | 0.0 | 0.0 | 0.00 | 0.00 | 0.00 | 84 | 1020.6 |
| 20260503000004 | 45 | 0 | 0.0 | 0.0 | 0.00 | 0.00 | 0.00 | 84 | 1020.7 |
| 20260502235505 | 45 | 0 | 0.0 | 0.0 | 0.00 | 0.00 | 0.00 | 84 | 1020.7 |
| 20260502235003 | 45 | 331 | 0.0 | 0.9 | 0.00 | 0.00 | 0.00 | 83 | 1020.8 |
| 20260502234505 | 46 | 331 | 0.0 | 0.9 | 0.00 | 0.00 | 0.00 | 84 | 1020.8 |
| 20260502234003 | 46 | 0 | 0.0 | 0.0 | 0.00 | 0.00 | 0.00 | 84 | 1020.9 |
| 20260502233711 | 46 | 0 | 0.0 | 0.0 | 0.00 | 0.00 | 0.00 | 84 | 1020.9 |
| 20260502233005 | 46 | 0 | 0.0 | 0.0 | 0.00 | 0.00 | 0.00 | 83 | 1020.9 |
| 20260502232503 | 46 | 0 | 0.0 | 0.0 | 0.00 | 0.00 | 0.00 | 84 | 1020.9 |
| 20260502232210 | 46 | 0 | 0.0 | 0.0 | 0.00 | 0.00 | 0.00 | 84 | 1020.9 |
| 20260502231503 | 46 | 0 | 0.0 | 0.0 | 0.00 | 0.00 | 0.00 | 82 | 1021.0 |
| 20260502231005 | 46 | 0 | 0.0 | 0.0 | 0.00 | 0.00 | 0.00 | 82 | 1021.0 |
| 20260502230503 | 46 | 0 | 0.0 | 0.0 | 0.00 | 0.00 | 0.00 | 83 | 1021.0 |
| 20260502230005 | 46 | 0 | 0.0 | 0.0 | 0.00 | 0.00 | 0.00 | 82 | 1021.1 |
| 20260502225503 | 47 | 331 | 0.0 | 0.9 | 0.00 | 0.00 | 0.00 | 82 | 1021.0 |
| 20260502225003 | 47 | 331 | 0.0 | 0.9 | 0.00 | 0.00 | 0.00 | 83 | 1021.1 |
| 20260502224504 | 47 | 0 | 0.0 | 0.0 | 0.00 | 0.00 | 0.00 | 82 | 1021.1 |
| 20260502224005 | 47 | 0 | 0.0 | 0.0 | 0.00 | 0.00 | 0.00 | 81 | 1021.1 |
| 20260502223505 | 47 | 331 | 0.9 | 0.9 | 0.00 | 0.00 | 0.00 | 81 | 1021.2 |
| 20260502223003 | 47 | 331 | 0.9 | 0.9 | 0.00 | 0.00 | 0.00 | 82 | 1021.1 |
| 20260502222503 | 47 | 331 | 0.0 | 1.7 | 0.00 | 0.00 | 0.00 | 83 | 1021.2 |
| 20260502222005 | 48 | 331 | 0.0 | 1.7 | 0.00 | 0.00 | 0.00 | 82 | 1021.2 |
| 20260502221710 | 48 | 331 | 0.0 | 0.9 | 0.00 | 0.00 | 0.00 | 83 | 1021.2 |
| 20260502221212 | 48 | 331 | 0.0 | 0.9 | 0.00 | 0.00 | 0.00 | 80 | 1021.2 |
| 20260502220504 | 48 | 331 | 0.0 | 0.9 | 0.00 | 0.00 | 0.00 | 80 | 1021.2 |
| 20260502220123 | 48 | 331 | 0.0 | 0.9 | 0.00 | 0.00 | 0.00 | 80 | 1021.3 |
| 20260502215503 | 48 | 0 | 0.0 | 0.0 | 0.00 | 0.00 | 0.00 | 79 | 1021.3 |
| 20260502215005 | 48 | 331 | 0.0 | 0.9 | 0.00 | 0.00 | 0.00 | 80 | 1021.3 |
| 20260502214503 | 49 | 331 | 0.0 | 0.9 | 0.00 | 0.00 | 0.00 | 79 | 1021.2 |
| 20260502214003 | 49 | 0 | 0.0 | 0.0 | 0.00 | 0.00 | 0.00 | 80 | 1021.2 |
| 20260502213712 | 49 | 0 | 0.0 | 0.0 | 0.00 | 0.00 | 0.00 | 79 | 1021.2 |
| 20260502213003 | 49 | 0 | 0.0 | 0.0 | 0.00 | 0.00 | 0.00 | 78 | 1021.1 |
| 20260502212504 | 50 | 0 | 0.0 | 0.0 | 0.00 | 0.00 | 0.00 | 78 | 1021.2 |
| 20260502212003 | 50 | 0 | 0.0 | 0.0 | 0.00 | 0.00 | 0.00 | 77 | 1021.1 |
| 20260502211506 | 50 | 0 | 0.0 | 0.0 | 0.00 | 0.00 | 0.00 | 77 | 1021.2 |
| 20260502211003 | 50 | 0 | 0.0 | 0.0 | 0.00 | 0.00 | 0.00 | 78 | 1021.1 |
| 20260502210503 | 50 | 0 | 0.0 | 0.0 | 0.00 | 0.00 | 0.00 | 77 | 1021.1 |
| 20260502210006 | 50 | 0 | 0.0 | 0.0 | 0.00 | 0.00 | 0.00 | 77 | 1021.1 |
| 20260502205503 | 51 | 331 | 0.0 | 0.9 | 0.00 | 0.00 | 0.00 | 76 | 1021.1 |
| 20260502205003 | 51 | 331 | 0.0 | 0.9 | 0.00 | 0.00 | 0.00 | 77 | 1021.2 |
| 20260502204712 | 51 | 331 | 0.0 | 1.7 | 0.00 | 0.00 | 0.00 | 78 | 1021.2 |
| 20260502204003 | 51 | 331 | 0.0 | 1.7 | 0.00 | 0.00 | 0.00 | 77 | 1021.2 |
| 20260502203710 | 51 | 331 | 0.0 | 0.9 | 0.00 | 0.00 | 0.00 | 76 | 1021.2 |
| 20260502203003 | 52 | 331 | 0.0 | 1.7 | 0.00 | 0.00 | 0.00 | 75 | 1021.2 |
| 20260502202503 | 52 | 331 | 0.0 | 1.7 | 0.00 | 0.00 | 0.00 | 75 | 1021.2 |
| 20260502202005 | 52 | 331 | 0.0 | 0.9 | 0.00 | 0.00 | 0.00 | 74 | 1021.3 |
| 20260502201503 | 52 | 0 | 0.0 | 0.0 | 0.00 | 0.00 | 0.00 | 74 | 1021.3 |
| 20260502201003 | 53 | 0 | 0.0 | 0.0 | 0.00 | 0.00 | 0.00 | 74 | 1021.3 |
| 20260502200505 | 53 | 0 | 0.0 | 0.0 | 0.00 | 0.00 | 0.00 | 73 | 1021.2 |
| 20260502200004 | 53 | 0 | 0.0 | 0.0 | 0.00 | 0.00 | 0.00 | 73 | 1021.3 |
| 20260502195503 | 54 | 0 | 0.0 | 0.0 | 0.00 | 0.00 | 0.00 | 73 | 1021.1 |
| 20260502195005 | 54 | 0 | 0.0 | 0.0 | 0.00 | 0.00 | 0.00 | 74 | 1021.1 |
| 20260502194503 | 54 | 331 | 0.0 | 0.9 | 0.00 | 0.00 | 0.00 | 72 | 1021.2 |
| 20260502194005 | 55 | 331 | 0.0 | 1.7 | 0.00 | 0.00 | 0.00 | 72 | 1021.1 |
| 20260502193503 | 55 | 331 | 0.0 | 1.7 | 0.00 | 0.00 | 0.00 | 72 | 1020.9 |
| 20260502193003 | 55 | 331 | 0.0 | 1.7 | 0.00 | 0.00 | 0.00 | 73 | 1020.9 |
| 20260502192505 | 56 | 331 | 0.0 | 0.9 | 0.00 | 0.00 | 0.00 | 72 | 1021.0 |
| 20260502192003 | 56 | 0 | 0.0 | 0.0 | 0.00 | 0.00 | 0.00 | 70 | 1020.9 |
| 20260502191503 | 56 | 331 | 0.9 | 1.7 | 0.00 | 0.00 | 0.00 | 70 | 1020.9 |
| 20260502191005 | 56 | 331 | 0.9 | 1.7 | 0.00 | 0.00 | 0.00 | 72 | 1020.8 |
| 20260502190503 | 57 | 331 | 0.0 | 1.7 | 0.00 | 0.00 | 0.00 | 71 | 1020.7 |
| 20260502190004 | 57 | 331 | 0.0 | 1.7 | 0.00 | 0.00 | 0.00 | 70 | 1020.7 |
| 20260502185505 | 58 | 331 | 0.0 | 0.9 | 0.00 | 0.00 | 0.00 | 69 | 1020.8 |
| 20260502185003 | 58 | 331 | 0.0 | 0.9 | 0.00 | 0.00 | 0.00 | 67 | 1020.7 |
| 20260502184710 | 58 | 331 | 0.0 | 0.9 | 0.00 | 0.00 | 0.00 | 68 | 1020.6 |
| 20260502184005 | 59 | 331 | 0.0 | 0.9 | 0.00 | 0.00 | 0.00 | 66 | 1020.5 |
| 20260502183503 | 59 | 0 | 0.0 | 0.0 | 0.00 | 0.00 | 0.00 | 68 | 1020.6 |
| 20260502182503 | 60 | 331 | 0.0 | 0.9 | 0.00 | 0.00 | 0.00 | 65 | 1020.3 |
| 20260502182003 | 61 | 0 | 0.0 | 0.0 | 0.00 | 0.00 | 0.00 | 64 | 1020.4 |
| 20260502181505 | 61 | 331 | 0.0 | 0.9 | 0.00 | 0.00 | 0.00 | 64 | 1020.3 |
| 20260502181003 | 62 | 331 | 0.9 | 1.7 | 0.00 | 0.00 | 0.00 | 62 | 1020.3 |
| 20260502180503 | 62 | 331 | 0.9 | 2.6 | 0.00 | 0.00 | 0.00 | 62 | 1020.3 |
| 20260502170503 | 69 | 299 | 0.9 | 1.7 | 0.00 | 0.00 | 0.00 | 51 | 1020.1 |
| 20260502164003 | 72 | 262 | 0.9 | 1.7 | 0.00 | 0.00 | 0.00 | 48 | 1020.3 |
| 20260502163503 | 72 | 262 | 0.9 | 1.7 | 0.00 | 0.00 | 0.00 | 46 | 1020.5 |
| 20260502163005 | 73 | 262 | 1.7 | 2.6 | 0.00 | 0.00 | 0.00 | 47 | 1020.4 |
| 20260502162710 | 73 | 261 | 1.7 | 2.6 | 0.00 | 0.00 | 0.00 | 44 | 1020.5 |
| 20260502162003 | 73 | 253 | 2.6 | 4.3 | 0.00 | 0.00 | 0.00 | 42 | 1020.5 |
| 20260502161504 | 73 | 247 | 1.7 | 4.3 | 0.00 | 0.00 | 0.00 | 42 | 1020.4 |
| 20260502161003 | 73 | 235 | 1.7 | 5.2 | 0.00 | 0.00 | 0.00 | 42 | 1020.6 |
| 20260502160505 | 74 | 228 | 1.7 | 5.2 | 0.00 | 0.00 | 0.00 | 42 | 1020.5 |
| 20260502160211 | 74 | 236 | 1.7 | 3.5 | 0.00 | 0.00 | 0.00 | 42 | 1020.6 |
| 20260502152212 | 74 | 230 | 2.6 | 4.3 | 0.00 | 0.00 | 0.00 | 42 | 1021.0 |
| 20260502151503 | 74 | 222 | 2.6 | 6.1 | 0.00 | 0.00 | 0.00 | 42 | 1021.1 |
| 20260502151005 | 74 | 238 | 2.6 | 6.1 | 0.00 | 0.00 | 0.00 | 42 | 1021.0 |
| 20260502150503 | 73 | 110 | 3.5 | 5.2 | 0.00 | 0.00 | 0.00 | 43 | 1021.1 |
| 20260502130505 | 73 | 103 | 3.5 | 7.0 | 0.00 | 0.00 | 0.00 | 43 | 1022.3 |
| 20260502123503 | 72 | 115 | 3.5 | 10.4 | 0.00 | 0.00 | 0.00 | 41 | 1022.7 |
| 20260502123005 | 72 | 95 | 3.5 | 11.3 | 0.00 | 0.00 | 0.00 | 43 | 1022.8 |
| 20260502122711 | 72 | 96 | 3.5 | 11.3 | 0.00 | 0.00 | 0.00 | 42 | 1022.9 |
| 20260502122003 | 72 | 95 | 4.3 | 9.6 | 0.00 | 0.00 | 0.00 | 42 | 1022.9 |
| 20260502121505 | 72 | 96 | 3.5 | 9.6 | 0.00 | 0.00 | 0.00 | 45 | 1022.9 |
| 20260502121003 | 71 | 97 | 2.6 | 9.6 | 0.00 | 0.00 | 0.00 | 44 | 1023.0 |
| 20260502120711 | 71 | 89 | 2.6 | 9.6 | 0.00 | 0.00 | 0.00 | 43 | 1023.1 |
| 20260502115503 | 71 | 103 | 4.3 | 9.6 | 0.00 | 0.00 | 0.00 | 44 | 1023.1 |
| 20260502115003 | 71 | 118 | 4.3 | 9.6 | 0.00 | 0.00 | 0.00 | 45 | 1023.1 |
| 20260502114505 | 71 | 127 | 3.5 | 8.7 | 0.00 | 0.00 | 0.00 | 44 | 1023.1 |
| 20260502114003 | 71 | 125 | 3.5 | 8.7 | 0.00 | 0.00 | 0.00 | 43 | 1023.1 |
| 20260502113505 | 71 | 96 | 3.5 | 8.7 | 0.00 | 0.00 | 0.00 | 45 | 1023.3 |
| 20260502113004 | 71 | 100 | 2.6 | 8.7 | 0.00 | 0.00 | 0.00 | 46 | 1023.3 |
| 20260502112504 | 71 | 112 | 2.6 | 7.8 | 0.00 | 0.00 | 0.00 | 44 | 1023.4 |
| 20260502112003 | 71 | 162 | 2.6 | 7.8 | 0.00 | 0.00 | 0.00 | 48 | 1023.4 |
| 20260502111503 | 70 | 220 | 1.7 | 6.1 | 0.00 | 0.00 | 0.00 | 45 | 1023.4 |
| 20260502111003 | 70 | 247 | 1.7 | 5.2 | 0.00 | 0.00 | 0.00 | 49 | 1023.5 |
| 20260502110503 | 70 | 273 | 2.6 | 5.2 | 0.00 | 0.00 | 0.00 | 48 | 1023.6 |
| 20260502110006 | 70 | 238 | 2.6 | 5.2 | 0.00 | 0.00 | 0.00 | 49 | 1023.7 |
| 20260502105503 | 69 | 242 | 2.6 | 4.3 | 0.00 | 0.00 | 0.00 | 49 | 1023.7 |
| 20260502105005 | 69 | 16 | 2.6 | 7.8 | 0.00 | 0.00 | 0.00 | 47 | 1023.8 |
| 20260502104503 | 69 | 41 | 1.7 | 7.8 | 0.00 | 0.00 | 0.00 | 47 | 1023.8 |
| 20260502104005 | 69 | 299 | 2.6 | 4.3 | 0.00 | 0.00 | 0.00 | 48 | 1023.9 |
| 20260502103503 | 69 | 216 | 2.6 | 7.0 | 0.00 | 0.00 | 0.00 | 51 | 1023.9 |
| 20260502103210 | 69 | 174 | 2.6 | 7.0 | 0.00 | 0.00 | 0.00 | 51 | 1023.9 |
| 20260502102505 | 69 | 184 | 3.5 | 6.1 | 0.00 | 0.00 | 0.00 | 51 | 1024.1 |
| 20260502102003 | 69 | 222 | 2.6 | 8.7 | 0.00 | 0.00 | 0.00 | 52 | 1024.2 |
| 20260502101503 | 69 | 223 | 2.6 | 8.7 | 0.00 | 0.00 | 0.00 | 52 | 1024.2 |
| 20260502101212 | 69 | 271 | 2.6 | 8.7 | 0.00 | 0.00 | 0.00 | 52 | 1024.2 |
| 20260502100503 | 68 | 329 | 2.6 | 6.1 | 0.00 | 0.00 | 0.00 | 53 | 1024.4 |
| 20260502091503 | 65 | 235 | 1.7 | 5.2 | 0.00 | 0.00 | 0.00 | 60 | 1025.1 |
| 20260502091003 | 65 | 238 | 1.7 | 5.2 | 0.00 | 0.00 | 0.00 | 61 | 1025.2 |
| 20260502090505 | 64 | 273 | 2.6 | 3.5 | 0.00 | 0.00 | 0.00 | 60 | 1025.3 |
| 20260502090211 | 64 | 72 | 2.6 | 6.1 | 0.00 | 0.00 | 0.00 | 62 | 1025.3 |